Weather History for KFOT - October, 2012

Change the Weather History Date:

Sunday, October 21, 2012

  Actual Average (KEKA) Record (KEKA)
Temperature  
Mean Temperature 50 °F 54 °F  
Max Temperature 62 °F 61 °F 73 °F (1998)
Min Temperature 37 °F 47 °F 36 °F (1908)
Degree Days  
Heating Degree Days 16 11  
Month to date heating degree days 214  
Since 1 July heating degree days 879  
Cooling Degree Days 0 0  
Month to date cooling degree days 0  
Year to date cooling degree days 0  
Moisture  
Dew Point 42 °F    
Average Humidity 79    
Maximum Humidity 100    
Minimum Humidity 42    
Precipitation  
Precipitation 0.20 in 0.09 in 1.27 in (1973)
Month to date precipitation 1.18  
Year to date precipitation 25.54  
Since 1 July precipitation 2.26  
Snow  
Snow - 0.00 in 0.00 in (2002)
Month to date snowfall 0.0  
Since 1 July snowfall 0.0  
Since 1 September snowfall 0.0  
Snow Depth -    
Sea Level Pressure  
Sea Level Pressure 29.91 in    
Wind  
Wind Speed 1 mph ()    
Max Wind Speed 10 mph    
Max Gust Speed -    
Visibility 9.5 miles    
Events      
T = Trace of Precipitation, MM = Missing Value Source: Averaged Metar Reports

Daily Weather History Graph

Daily Weather History Graph

Search for Another Location

Airport or City:

Trip Planner

Search our weather history database for the weather conditions in past years. The results will help you decide how hot, cold, wet, or windy it might be!

Date:

Astronomy

Oct. 21, 2012 Rise Set
Actual Time 7:34 AM PDT 6:26 PM PDT
Civil Twilight 7:06 AM PDT 6:54 PM PDT
Nautical Twilight 6:35 AM PDT 7:26 PM PDT
Astronomical Twilight 6:03 AM PDT 7:57 PM PDT
Moon 2:00 PM PDT (10/21) No Moon Set
Length of Visible Light 11h 47m
Length of Day
10h 51m
Waxing Crescent, 46% of the Moon is Illuminated
Oct 21
Waxing Crescent
Oct 21
First Quarter
Oct 29
Full
Nov 6
Last Quarter
Nov 13
New

Hourly Weather History & Observations

Time (PDT) Temp. Windchill Dew Point Humidity Pressure Visibility Wind Dir Wind Speed Gust Speed Precip Events Conditions
12:15 AM 46.4 °F - 44.6 °F 93% 29.99 in 10.0 mi Calm Calm - N/A   Clear
12:35 AM 46.4 °F - 44.6 °F 93% 29.99 in 10.0 mi Calm Calm - N/A   Clear
12:55 AM 46.4 °F - 44.6 °F 93% 29.99 in 10.0 mi Calm Calm - N/A   Clear
1:15 AM 46.4 °F - 44.6 °F 93% 29.99 in 10.0 mi Calm Calm - N/A   Clear
1:35 AM 46.4 °F - 44.6 °F 93% 29.99 in 10.0 mi Calm Calm - N/A   Clear
1:55 AM 46.4 °F - 44.6 °F 93% 29.99 in 10.0 mi Calm Calm - N/A   Clear
2:15 AM 44.6 °F - 44.6 °F 100% 30.00 in 10.0 mi Calm Calm - N/A   Clear
2:35 AM 42.8 °F - 42.8 °F 100% 29.99 in 10.0 mi Calm Calm - N/A   Clear
2:55 AM 41.0 °F - 41.0 °F 100% 29.99 in 10.0 mi Calm Calm - N/A   Clear
3:15 AM 41.0 °F - 41.0 °F 100% 29.99 in 10.0 mi Calm Calm - N/A   Clear
3:35 AM 39.2 °F - 39.2 °F 100% 29.98 in 10.0 mi Calm Calm - N/A   Clear
3:55 AM 39.2 °F - 39.2 °F 100% 29.97 in 10.0 mi Calm Calm - N/A   Clear
4:15 AM 41.0 °F - 41.0 °F 100% 29.97 in 10.0 mi Calm Calm - N/A   Clear
4:35 AM 39.2 °F - 39.2 °F 100% 29.97 in 10.0 mi Calm Calm - N/A   Clear
4:55 AM 39.2 °F - 39.2 °F 100% 29.96 in 10.0 mi Calm Calm - N/A   Clear
5:15 AM 39.2 °F - 39.2 °F 100% 29.96 in 10.0 mi Calm Calm - N/A   Clear
5:35 AM 39.2 °F - 39.2 °F 100% 29.96 in 10.0 mi Calm Calm - N/A   Clear
5:55 AM 39.2 °F 35.0 °F 39.2 °F 100% 29.96 in 10.0 mi SE 5.8 mph - N/A   Clear
6:15 AM 39.2 °F 35.9 °F 39.2 °F 100% 29.96 in 10.0 mi SE 4.6 mph - N/A   Clear
6:35 AM 39.2 °F 33.6 °F 39.2 °F 100% 29.96 in 10.0 mi SE 8.1 mph - N/A   Clear
6:55 AM 39.2 °F 35.9 °F 39.2 °F 100% 29.96 in 10.0 mi SE 4.6 mph - N/A   Clear
7:15 AM 37.4 °F 32.1 °F 37.4 °F 100% 29.96 in 10.0 mi SE 6.9 mph - N/A   Partly Cloudy
7:55 AM 39.2 °F 33.0 °F 39.2 °F 100% 29.97 in 10.0 mi ESE 9.2 mph - N/A   Partly Cloudy
8:15 AM 41.0 °F 35.2 °F 41.0 °F 100% 29.96 in 10.0 mi ESE 9.2 mph - N/A   Partly Cloudy
9:15 AM 42.8 °F 39.3 °F 42.8 °F 100% 29.97 in 10.0 mi SE 5.8 mph - N/A   Clear
9:55 AM 46.4 °F 44.3 °F 42.8 °F 87% 29.97 in 10.0 mi ESE 4.6 mph - N/A   Clear
10:15 AM 48.2 °F - 41.0 °F 76% 29.96 in 10.0 mi ESE 5.8 mph - N/A   Clear
10:35 AM 50.0 °F - 42.8 °F 76% 29.96 in 10.0 mi Calm Calm - N/A   Clear
10:55 AM 53.6 °F - 41.0 °F 62% 29.95 in 10.0 mi Calm Calm - N/A   Clear
11:15 AM 53.6 °F - 42.8 °F 67% 29.95 in 10.0 mi Calm Calm - N/A   Clear
11:35 AM 55.4 °F - 39.2 °F 54% 29.95 in 10.0 mi Calm Calm - N/A   Clear
11:55 AM 57.2 °F - 39.2 °F 51% 29.94 in 10.0 mi Calm Calm - N/A   Clear
12:15 PM 57.2 °F - 39.2 °F 51% 29.93 in 10.0 mi Calm Calm - N/A   Clear
12:35 PM 59.0 °F - 39.2 °F 48% 29.92 in 10.0 mi Calm Calm - N/A   Clear
12:55 PM 59.0 °F - 39.2 °F 48% 29.91 in 10.0 mi Calm Calm - N/A   Clear
1:35 PM 62.6 °F - 41.0 °F 45% 29.90 in 10.0 mi WNW 8.1 mph - N/A   Clear
1:55 PM 60.8 °F - 44.6 °F 55% 29.90 in 10.0 mi NW 10.4 mph - N/A   Clear
2:15 PM 59.0 °F - 44.6 °F 59% 29.89 in 10.0 mi NW 10.4 mph - N/A   Clear
2:35 PM 59.0 °F - 42.8 °F 55% 29.89 in 10.0 mi NNW 9.2 mph - N/A   Clear
3:35 PM 60.8 °F - 41.0 °F 48% 29.86 in 10.0 mi NNE 5.8 mph - N/A   Scattered Clouds
3:55 PM 62.6 °F - 39.2 °F 42% 29.86 in 10.0 mi Calm Calm - N/A   Mostly Cloudy
4:15 PM 60.8 °F - 39.2 °F 45% 29.85 in 10.0 mi SW 3.5 mph - N/A   Overcast
4:35 PM 59.0 °F - 39.2 °F 48% 29.85 in 10.0 mi SSW 5.8 mph - N/A   Overcast
4:55 PM 59.0 °F - 39.2 °F 48% 29.85 in 10.0 mi Calm Calm - N/A   Mostly Cloudy
5:15 PM 59.0 °F - 41.0 °F 51% 29.84 in 10.0 mi Calm Calm - N/A   Overcast
5:35 PM 57.2 °F - 41.0 °F 55% 29.84 in 10.0 mi Calm Calm - N/A   Overcast
5:55 PM 57.2 °F - 42.8 °F 59% 29.84 in 10.0 mi Calm Calm - N/A   Overcast
6:15 PM 57.2 °F - 41.0 °F 55% 29.83 in 10.0 mi Calm Calm - N/A   Overcast
6:35 PM 57.2 °F - 41.0 °F 55% 29.82 in 10.0 mi Calm Calm - N/A   Overcast
6:55 PM 55.4 °F - 42.8 °F 63% 29.81 in 10.0 mi Calm Calm - N/A   Overcast
7:35 PM 55.4 °F - 42.8 °F 63% 29.81 in 10.0 mi Calm Calm - N/A   Overcast
7:55 PM 53.6 °F - 44.6 °F 72% 29.81 in 10.0 mi Calm Calm - N/A   Overcast
8:15 PM 53.6 °F - 46.4 °F 77% 29.81 in 9.0 mi Calm Calm - N/A   Overcast
8:35 PM 51.8 °F - 46.4 °F 82% 29.80 in 10.0 mi Calm Calm - 0.01 in   Overcast
9:15 PM 51.8 °F - 48.2 °F 88% 29.79 in 10.0 mi Calm Calm - 0.01 in   Overcast
9:35 PM 50.0 °F - 50.0 °F 100% 29.79 in 7.0 mi Calm Calm - 0.02 in   Overcast
9:55 PM 50.0 °F - 50.0 °F 100% 29.80 in 5.0 mi Calm Calm - 0.04 in   Overcast
10:35 PM 50.0 °F - 50.0 °F 100% 29.79 in 7.0 mi Calm Calm - 0.04 in   Overcast
10:55 PM 50.0 °F - 50.0 °F 100% 29.79 in 5.0 mi Calm Calm - 0.07 in   Overcast
11:15 PM 48.2 °F - 48.2 °F 100% 29.79 in 0.5 mi Calm Calm - 0.02 in   Overcast
11:55 PM 48.2 °F - 48.2 °F 100% 29.77 in 7.0 mi Calm Calm - 0.08 in   Overcast